EST,Max TemperatureF,Mean TemperatureF,Min TemperatureF,Max Dew PointF,MeanDew PointF,Min DewpointF,Max Humidity, Mean Humidity, Min Humidity, Max Sea Level PressureIn, Mean Sea Level PressureIn, Min Sea Level PressureIn, Max VisibilityMiles, Mean VisibilityMiles, Min VisibilityMiles, Max Wind SpeedMPH, Mean Wind SpeedMPH, Max Gust SpeedMPH,PrecipitationIn, CloudCover, Events, WindDirDegrees
2013-12-1,45,30,15,30,22,13,92,67,41,30.29,30.15,30.00,10,10,7,7,1,,0.00,4,,194
2013-12-2,49,41,33,33,31,29,85,69,52,29.99,29.89,29.83,10,10,7,5,1,,0.00,8,,217
2013-12-3,50,41,32,37,34,31,96,79,61,29.96,29.90,29.84,10,9,7,6,1,,0.00,5,Rain,17
2013-12-4,61,47,32,44,39,32,100,77,53,30.06,30.00,29.95,10,8,1,7,2,,0.00,4,,17
2013-12-5,56,45,34,49,42,33,100,89,77,30.09,30.04,29.98,10,5,0,7,2,,0.02,6,Fog-Rain,28
2013-12-6,52,43,34,49,42,32,96,93,89,30.12,30.02,29.92,10,7,1,14,3,18,1.11,8,Rain,255
2013-12-7,34,31,28,32,27,22,92,82,72,30.45,30.33,30.13,10,10,10,7,4,,0.00,8,,314
2013-12-8,31,29,27,30,25,22,96,87,78,30.42,30.31,30.15,10,6,1,8,6,,0.55,8,Snow,49
2013-12-9,39,35,31,37,32,28,100,91,82,30.13,30.09,30.05,10,6,1,10,3,,0.10,7,,276
2013-12-10,32,26,20,30,22,12,96,81,65,30.24,30.08,29.96,10,8,2,14,6,22,0.19,5,Snow,271
2013-12-11,37,26,15,19,14,11,88,63,38,30.36,30.28,30.22,10,10,10,13,5,18,0.00,0,,250
2013-12-12,27,22,16,16,6,-1,64,49,33,30.38,30.32,30.26,10,10,10,13,8,18,0.00,2,,281
2013-12-13,38,27,16,18,8,3,66,47,28,30.29,30.25,30.21,10,10,10,12,4,,0.00,0,,244
2013-12-14,33,30,26,31,28,17,96,80,63,30.25,30.03,29.71,10,6,0,10,4,,0.25,8,Fog-Snow,35
2013-12-15,36,32,27,34,25,20,96,84,72,30.01,29.87,29.69,10,8,1,13,7,20,0.01,8,,274
2013-12-16,34,29,23,26,23,19,92,82,72,30.11,30.05,29.99,10,9,2,9,5,18,0.00,7,Snow,252
2013-12-17,39,31,22,32,27,20,96,83,70,30.06,30.00,29.92,10,8,4,13,5,18,0.06,6,Rain-Snow,251
2013-12-18,34,27,19,22,17,14,81,65,49,30.21,30.16,30.05,10,10,1,14,7,21,T,2,Snow,280
2013-12-19,55,36,16,26,20,13,88,56,24,30.24,30.19,30.14,10,10,10,10,3,,0.00,0,,284
2013-12-20,58,42,26,37,28,22,89,59,28,30.16,30.11,30.05,10,10,10,9,2,,0.00,4,,293
2013-12-21,64,50,36,53,41,32,85,71,57,30.09,30.02,29.93,10,10,10,15,6,23,0.00,4,,24
2013-12-22,64,56,47,54,50,46,96,83,70,30.10,30.00,29.91,10,7,0,22,7,28,0.65,6,Fog-Rain,207
2013-12-23,51,39,26,49,36,20,96,84,72,30.24,30.13,29.96,10,8,2,9,4,,0.61,6,Rain,286
2013-12-24,28,21,13,22,14,5,78,67,56,30.40,30.28,30.20,10,9,1,15,7,26,T,5,Snow,296
2013-12-25,33,20,7,13,8,5,87,60,32,30.41,30.34,30.24,10,10,10,7,2,,0.00,0,,10
2013-12-26,37,27,16,20,15,9,84,59,33,30.34,30.26,30.20,10,10,10,12,4,22,0.00,3,,270
2013-12-27,44,30,15,20,14,10,88,58,28,30.42,30.36,30.32,10,10,5,7,2,,0.00,0,,221
2013-12-28,47,31,15,30,18,12,88,58,27,30.36,30.28,30.13,10,10,5,8,2,,0.02,1,Rain,217
2013-12-29,42,37,32,40,35,29,100,91,82,30.12,29.87,29.71,10,7,1,15,7,22,1.10,8,Rain,314
2013-12-30,37,33,28,33,26,21,89,81,72,30.12,30.04,29.92,10,10,7,13,6,16,T,8,,277
2013-12-31,32,28,23,24,17,14,81,64,47,30.30,30.20,30.09,10,10,10,16,6,29,0.00,2,,261